This is the latest recevied weather packets stored in our database for station/object W5LND-10. If no packets are shown the sender has not sent any weather packets the latest 1 day(s).
| Time | Temp. | Humidity | Pressure | Rain* | Wind** | Luminosity | Snow |
|---|---|---|---|---|---|---|---|
| 1777970471 | 20.56° C | 72% | 1000.7 hPa | 0 mm | 4.92 m/s, 244° | 0 W/m² | - |
| 1777970171 | 20.56° C | 71% | 1000.5 hPa | 0 mm | 4.92 m/s, 260° | 0 W/m² | - |
| 1777969871 | 20.56° C | 71% | 1000.2 hPa | 0 mm | 4.92 m/s, 259° | 0 W/m² | - |
| 1777969571 | 20.56° C | 71% | 1000.2 hPa | 0 mm | 4.92 m/s, 252° | 0 W/m² | - |
| 1777969271 | 21.11° C | 70% | 1000.4 hPa | 0 mm | 4.92 m/s, 251° | 0 W/m² | - |
| 1777968971 | 21.11° C | 70% | 1000.5 hPa | 0 mm | 4.92 m/s, 257° | 0 W/m² | - |
| 1777968671 | 21.11° C | 69% | 1000.5 hPa | 0 mm | 4.92 m/s, 300° | 0 W/m² | - |
| 1777968371 | 21.11° C | 69% | 1000.7 hPa | 0 mm | 5.36 m/s, 241° | 0 W/m² | - |
| 1777968071 | 21.11° C | 68% | 1000.7 hPa | 0 mm | 4.47 m/s, 238° | 0 W/m² | - |
| 1777967771 | 21.11° C | 68% | 1000.9 hPa | 0 mm | 4.47 m/s, 230° | 0 W/m² | - |
| 1777967471 | 21.67° C | 68% | 1000.9 hPa | 0 mm | 5.36 m/s, 259° | 0 W/m² | - |
| 1777967171 | 21.67° C | 67% | 1001 hPa | 0 mm | 4.92 m/s, 242° | 0 W/m² | - |
| 1777966871 | 21.67° C | 67% | 1000.9 hPa | 0 mm | 4.92 m/s, 246° | 0 W/m² | - |
| 1777966571 | 21.67° C | 67% | 1001.1 hPa | 0 mm | 4.02 m/s, 242° | 0 W/m² | - |
| 1777966271 | 21.67° C | 66% | 1001.1 hPa | 0 mm | 4.47 m/s, 242° | 0 W/m² | - |
| 1777965971 | 21.67° C | 66% | 1001.1 hPa | 0 mm | 4.47 m/s, 257° | 0 W/m² | - |
| 1777965671 | 21.67° C | 65% | 1001.1 hPa | 0 mm | 4.02 m/s, 257° | 0 W/m² | - |
| 1777965371 | 22.22° C | 65% | 1001.1 hPa | 0 mm | 4.47 m/s, 228° | 0 W/m² | - |
| 1777965071 | 22.22° C | 65% | 1001.2 hPa | 0 mm | 4.92 m/s, 250° | 0 W/m² | - |
| 1777964771 | 22.22° C | 64% | 1001.4 hPa | 0 mm | 4.92 m/s, 248° | 0 W/m² | - |
* Rain latest hour (hover to see other rain measurements)
** Current wind speed in m/s (hover to see current wind gust speed)